Terminal Aerodrome Forecast
Issued by NWS Pittsburgh, PA

Current Version | Previous Version | Graphics & Text | Print | Product List | Glossary On
Versions: 1 2 3 4 5 6 7 8 9 10 11 12 13 14 15 16 17 18 19 20 21 22 23 24 25 26 27 28 29
000
FTUS41 KPBZ 190900 AAA
TAFPIT
TAF AMD
KPIT 190901Z 1909/2012 30008KT P6SM SCT025 BKN035
     FM192100 25004KT P6SM BKN200=

USA.gov is the U.S. government's official web portal to all federal, state and local government web resources and services.